Location: Unspecified
(0.0000°N, 0.0000°E)
Time: 15:10:22
(UTC+02:00)

Centaur D-1AR AC-41 - Visible Passes

Search period start: 26 July 2014 00:00
Search period end: 05 August 2014 00:00
Orbit: 669 x 36175 km, 21.4° (Epoch: 24 July)

Date Brightness Start Highest point End Pass type
(mag) Time Alt. Az. Time Alt. Az. Time Alt. Az.
26 Jul 7.4 00:00:00 42° NW 06:50:52 82° NNW 10:03:40 10° ESE visible
26 Jul 7.3 21:18:49 10° W 05:46:22 57° E 07:25:12 10° ESE visible
28 Jul 10.4 01:34:41 10° E 03:13:36 17° E 04:13:24 10° E visible
28 Jul 9.8 07:19:19 10° WNW 08:11:31 14° WNW 09:24:30 10° WNW visible
29 Jul 6.3 03:50:13 10° WNW 05:52:12 50° WNW 13:49:58 10° SE visible
30 Jul 7.7 01:07:52 10° WNW 05:21:32 75° NNW 11:18:53 10° SE visible
30 Jul 7.6 22:33:30 10° WNW 06:58:13 82° E 08:44:44 10° ESE visible
31 Jul 5.0 20:01:55 10° W 20:06:55 63° NNW 20:32:38 10° ENE visible
31 Jul 10.0 23:56:35 10° ENE 04:27:01 40° E 05:59:51 10° ESE visible
02 Aug 9.3 05:22:15 10° WNW 06:57:58 29° WNW 10:23:11 10° W visible
03 Aug 6.9 02:26:53 10° WNW 04:51:39 64° NW 12:33:14 10° SE visible
03 Aug 7.9 23:49:08 10° WNW 05:52:18 82° NNW 10:01:12 10° SE visible
04 Aug 6.4 21:16:15 10° W 21:24:39 50° N 00:00:00 23° ENE visible
